This is the latest recevied weather packets stored in our database for station/object YN1JLX-13. If no packets are shown the sender has not sent any weather packets the latest 10 day(s).
| Time | Temp. | Humidity | Pressure | Rain* | Wind** | Luminosity | Snow |
|---|---|---|---|---|---|---|---|
| 1777740766 | 26.11° C | 55% | 1011 hPa | 0 mm | - | - | - |
| 1777740165 | 26.11° C | 55% | 1011 hPa | 0 mm | - | - | - |
| 1777739565 | 26.11° C | 60% | 1011 hPa | 0 mm | - | - | - |
| 1777738964 | 27.22° C | 62% | 1012 hPa | 0 mm | - | - | - |
| 1777738364 | 23.89° C | 62% | 1012 hPa | 0 mm | - | - | - |
| 1777737764 | 24.44° C | 62% | 1012 hPa | 0 mm | - | - | - |
| 1777737163 | 25° C | 62% | 1012 hPa | 0 mm | - | - | - |
| 1777736563 | 25° C | 60% | 1012 hPa | 0 mm | - | - | - |
| 1777735963 | 23.33° C | 70% | 1012 hPa | 0 mm | - | - | - |
| 1777735363 | 22.78° C | 70% | 1012 hPa | 0 mm | - | - | - |
| 1777734762 | 23.33° C | 70% | 1012 hPa | 0 mm | - | - | - |
| 1777734162 | 22.22° C | 70% | 1012 hPa | 0 mm | - | - | - |
| 1777733561 | 22.22° C | 70% | 1012 hPa | 0 mm | - | - | - |
| 1777732961 | 22.22° C | 70% | 1012 hPa | 0 mm | - | - | - |
| 1777732361 | 22.78° C | 70% | 1012 hPa | 0 mm | - | - | - |
| 1777731761 | 21.67° C | 78% | 1012 hPa | 0 mm | - | - | - |
| 1777731160 | 21.67° C | 78% | 1012 hPa | 0 mm | - | - | - |
| 1777730560 | 21.11° C | 78% | 1012 hPa | 0 mm | - | - | - |
| 1777729960 | 21.11° C | 77% | 1012 hPa | 0 mm | - | - | - |
| 1777729360 | 21.11° C | 75% | 1012 hPa | 0 mm | - | - | - |
| 1777728759 | 22.22° C | 74% | 1012 hPa | 0 mm | - | - | - |
| 1777728159 | 20° C | 82% | 1011 hPa | 0 mm | - | - | - |
| 1777727559 | 20° C | 83% | 1011 hPa | 0 mm | - | - | - |
| 1777726958 | 20° C | 83% | 1011 hPa | 0 mm | - | - | - |
| 1777726358 | 20° C | 84% | 1011 hPa | 0 mm | - | - | - |
* Rain latest hour (hover to see other rain measurements)
** Current wind speed in m/s (hover to see current wind gust speed)